Flight Track Log - Related Links

Times and Time Zones

All times are in EDT time to prevent confusion due to time zone crossing. See the ASH3732 flight status page for this flight to view local times or setup timezone preferences in your user account.

Time Position Orientation Groundspeed Altitude Reporting Facility
EDT Latitude Longitude Course Direction KTS MPH feet Rate Location/Type
Tue 07:36:28 AM 35.1911 -80.9508 323° Northwest 177 204 1,400  Level Atlanta Center
Tue 07:36:46 AM 35.1744 -80.9514 182° South 177 204 2,000 1,835 Climbing Atlanta Center
Tue 07:37:53 AM 35.1164 -80.9639 190° South 217 250 4,000 1,688 Climbing Atlanta Center
Tue 07:38:54 AM 35.0992 -81.0306 252° West 272 313 5,600 1,855 Climbing Atlanta Center
Tue 07:39:43 AM 35.1539 -81.0464 347° North 283 326 7,400 2,257 Climbing Atlanta Center
Tue 07:40:00 AM 35.6312 -81.3320 323° Northwest  Level Estimated
Tue 07:40:43 AM 35.2286 -81.0258 13° North 301 346 9,700  Level Atlanta Center
Tue 07:41:00 AM 35.7354 -81.4284 323° Northwest  Level Estimated
Tue 07:41:43 AM 35.3136 -81.0022 13° North 306 352 11,000  Level Atlanta Center
Tue 07:42:43 AM 35.4089 -80.9733 14° North 328 377 12,600 1,750 Climbing Atlanta Center
Tue 07:43:43 AM 35.5081 -80.9442 13° North 351 404 14,500 1,700 Climbing Atlanta Center
Tue 07:44:43 AM 35.6106 -80.9453 359° North 358 412 16,000 1,550 Climbing Atlanta Center
Tue 07:45:43 AM 35.6975 -81.0111 328° Northwest 351 404 17,600 1,600 Climbing Atlanta Center
Tue 07:46:43 AM 35.7936 -81.0972 324° Northwest 366 421 19,200 1,450 Climbing Atlanta Center
Tue 07:47:43 AM 35.8728 -81.1814 319° Northwest 372 428 20,500 1,200 Climbing Atlanta Center
Tue 07:48:43 AM 35.9561 -81.2708 319° Northwest 384 442 21,600 1,100 Climbing Atlanta Center
Tue 07:49:43 AM 36.0394 -81.3606 319° Northwest 395 455 22,700 1,050 Climbing Atlanta Center
Tue 07:50:43 AM 36.1228 -81.4503 319° Northwest 395 455 23,700 1,000 Climbing Atlanta Center
Tue 07:51:43 AM 36.2103 -81.5425 320° Northwest 395 455 24,700 850 Climbing Atlanta Center
Tue 07:52:43 AM 36.2956 -81.6378 318° Northwest 400 460 25,400 900 Climbing Atlanta Center
Tue 07:53:43 AM 36.3828 -81.7333 319° Northwest 405 466 26,500 1,000 Climbing Atlanta Center
Tue 07:54:43 AM 36.4722 -81.8289 319° Northwest 410 472 27,400 650 Climbing Atlanta Center
Tue 07:55:43 AM 36.5572 -81.9247 318° Northwest 410 472 27,800 550 Climbing Atlanta Center
Tue 07:56:43 AM 36.6486 -82.0206 320° Northwest 421 484 28,500 652 Climbing Atlanta Center
Tue 07:57:15 AM 36.6942 -82.0717 318° Northwest 431 496 28,800 511 Climbing Indianapolis Center
Tue 07:58:17 AM 36.7856 -82.1725 319° Northwest 436 502 29,300 677 Climbing Indianapolis Center
Tue 07:59:19 AM 36.8764 -82.2742 318° Northwest 437 503 30,200 581 Climbing Indianapolis Center
Tue 08:00:21 AM 36.9675 -82.3747 319° Northwest 437 503 30,500 683 Climbing Indianapolis Center
Tue 08:01:22 AM 37.0747 -82.4936 319° Northwest 440 506 31,600 1,073 Climbing Indianapolis Center
Tue 08:02:24 AM 37.1622 -82.5922 318° Northwest 433 498 32,700 823 Climbing Indianapolis Center
Tue 08:03:26 AM 37.2489 -82.6889 318° Northwest 425 489 33,300 634 Climbing Indianapolis Center
Tue 08:04:27 AM 37.3367 -82.7881 318° Northwest 425 489 34,000 341 Climbing Indianapolis Center
Tue 08:05:29 AM 37.4250 -82.8892 318° Northwest 426 490 34,000  Level Indianapolis Center
Tue 08:06:31 AM 37.5322 -83.0100 318° Northwest 439 505 34,000  Level Indianapolis Center
Tue 08:07:32 AM 37.6253 -83.1167 318° Northwest 446 513 34,000  Level Indianapolis Center
Tue 08:08:34 AM 37.7203 -83.2272 317° Northwest 459 528 34,000  Level Indianapolis Center
Tue 08:09:36 AM 37.8172 -83.3375 318° Northwest 463 533 34,000  Level Indianapolis Center
Tue 08:10:38 AM 37.9125 -83.4458 318° Northwest 463 533 34,000  Level Indianapolis Center
Tue 08:11:39 AM 38.0056 -83.5556 317° Northwest 461 531 34,000  Level Indianapolis Center
Tue 08:12:41 AM 38.1158 -83.6836 318° Northwest 461 531 34,000  Level Indianapolis Center
Tue 08:13:43 AM 38.2106 -83.7939 318° Northwest 461 531 34,000  Level Indianapolis Center
Tue 08:14:44 AM 38.3042 -83.9044 317° Northwest 460 529 34,000  Level Indianapolis Center
Tue 08:15:46 AM 38.3989 -84.0156 317° Northwest 460 529 34,000  Level Indianapolis Center
Tue 08:16:48 AM 38.4931 -84.1242 318° Northwest 460 529 34,000  Level Indianapolis Center
Tue 08:17:50 AM 38.5875 -84.2367 317° Northwest 460 529 34,000  Level Indianapolis Center
Tue 08:18:51 AM 38.6953 -84.3614 318° Northwest 461 531 34,000  Level Indianapolis Center
Tue 08:19:53 AM 38.7908 -84.4731 318° Northwest 462 532 34,000  Level Indianapolis Center
Tue 08:20:55 AM 38.8806 -84.5769 318° Northwest 462 532 34,000 -387 Level Indianapolis Center
Tue 08:21:57 AM 38.9808 -84.6936 318° Northwest 461 531 33,200 -1,161 Descending Indianapolis Center
Tue 08:22:59 AM 39.0792 -84.8075 318° Northwest 468 539 31,600 -1,707 Descending Indianapolis Center
Tue 08:24:00 AM 39.1839 -84.9292 318° Northwest 455 524 29,700 -1,756 Descending Indianapolis Center
Tue 08:25:02 AM 39.2469 -85.0453 305° West 409 471 28,000 -823 Descending Indianapolis Center
Tue 08:26:04 AM 39.3106 -85.1581 306° West 395 455 28,000  Level Indianapolis Center
Tue 08:27:06 AM 39.4022 -85.2269 330° Northwest 391 450 28,000  Level Indianapolis Center
Tue 08:28:08 AM 39.5111 -85.2728 342° North 407 468 28,000  Level Indianapolis Center
Tue 08:29:10 AM 39.6450 -85.3269 343° North 417 480 28,000 -97 Level Indianapolis Center
Tue 08:30:12 AM 39.7572 -85.3731 342° North 422 486 27,800 -484 Descending Indianapolis Center
Tue 08:31:14 AM 39.8664 -85.4186 342° North 422 486 27,000 -774 Descending Indianapolis Center
Tue 08:32:16 AM 39.9739 -85.4628 343° North 414 476 26,200 -484 Descending Indianapolis Center
Tue 08:33:18 AM 40.0797 -85.5064 343° North 408 470 26,000 -97 Descending Indianapolis Center
Tue 08:34:20 AM 40.1864 -85.5511 342° North 406 467 26,000  Level Indianapolis Center
Tue 08:35:22 AM 40.3122 -85.6042 342° North 402 463 26,000 -93 Level Indianapolis Center
Tue 08:36:29 AM 40.4192 -85.6472 343° North 404 465 25,800 -744 Descending Chicago Center
Tue 08:37:31 AM 40.5286 -85.6917 343° North 414 476 24,400 -871 Descending Chicago Center
Tue 08:38:33 AM 40.6553 -85.7675 336° Northwest 428 493 24,000 -336 Descending Chicago Center
Tue 08:39:36 AM 40.7106 -85.8778 304° West 411 473 23,700 -768 Descending Chicago Center
Tue 08:40:38 AM 40.7875 -86.0317 303° West 416 479 22,400 -823 Descending Chicago Center
Tue 08:41:40 AM 40.8489 -86.1528 304° West 399 459 22,000 -194 Descending Chicago Center
Tue 08:42:42 AM 40.9111 -86.2769 304° West 401 461 22,000  Level Chicago Center
Tue 08:43:45 AM 40.9742 -86.4031 304° West 408 470 22,000 -240 Level Chicago Center
Tue 08:44:47 AM 41.0358 -86.5281 303° West 405 466 21,500 -629 Descending Chicago Center
Tue 08:45:49 AM 41.0964 -86.6464 304° West 391 450 20,700 -1,065 Descending Chicago Center
Tue 08:46:51 AM 41.1633 -86.7819 303° West 386 444 19,300 -2,274 Descending Chicago Center
Tue 08:47:53 AM 41.2272 -86.9139 303° West 383 441 16,000 -2,855 Descending Chicago Center
Tue 08:48:55 AM 41.2789 -87.0200 303° West 345 397 13,400 -2,419 Descending Chicago Center
Tue 08:49:57 AM 41.3308 -87.1267 303° West 324 373 11,000 -1,152 Descending Chicago Center
Tue 08:51:00 AM 41.3750 -87.2072 306° West 268 308 11,000 -384 Level Chicago Center
Tue 08:52:02 AM 41.4367 -87.2797 319° Northwest 270 311 10,200 -968 Descending Chicago Center
Tue 08:53:04 AM 41.4928 -87.3472 318° Northwest 271 312 9,000 -1,065 Descending Chicago Center
Tue 08:54:06 AM 41.5547 -87.4064 324° Northwest 273 314 8,000 -484 Descending Chicago Center
Tue 08:55:08 AM 41.6222 -87.4669 326° Northwest 273 314 8,000  Level Chicago Center
Tue 08:56:10 AM 41.6831 -87.5286 323° Northwest 275 316 8,000  Level Chicago Center
Tue 08:57:12 AM 41.7439 -87.5956 321° Northwest 267 307 8,000  Level Chicago Center
Tue 08:58:15 AM 41.8111 -87.5972 359° North 215 247 8,000  Level Chicago Center
Tue 08:59:17 AM 41.8642 -87.5908 North 193 222 8,000 -339 Level Chicago Center
Tue 09:00:19 AM 41.8911 -87.5100 66° East 235 270 7,300 -823 Descending Chicago Center
Tue 09:01:21 AM 41.8967 -87.4214 85° East 218 251 6,300 -823 Descending Chicago Center
Tue 09:02:23 AM 41.9033 -87.3417 84° East 217 250 5,600 -629 Descending Chicago Center
Tue 09:03:25 AM 41.9606 -87.3306 North 202 232 5,000 -288 Descending Chicago Center
Tue 09:04:28 AM 41.9664 -87.3958 277° West 188 216 5,000  Level Chicago Center
Tue 09:05:30 AM 41.9650 -87.4689 269° West 185 213 5,000  Level Chicago Center
Tue 09:06:32 AM 41.9653 -87.5353 270° West 180 207 5,000 -97 Level Chicago Center
Tue 09:07:34 AM 41.9653 -87.6017 270° West 168 193 4,800 -581 Descending Chicago Center
Tue 09:08:36 AM 41.9653 -87.6678 270° West 175 201 3,800 -919 Descending Chicago Center
Tue 09:09:38 AM 41.9658 -87.7339 271° West 167 192 2,900 -871 Descending Chicago Center
Tue 09:10:40 AM 41.9656 -87.7939 270° West 164 189 2,000 -768 Descending Chicago Center
Tue 09:11:43 AM 41.9653 -87.8489 270° West 140 161 1,300 -576 Descending Chicago Center
Tue 09:12:45 AM 41.9656 -87.8983 270° West 138 159 800 -484 Descending Chicago Center
Tue 09:14:00 AM 41.9793 -87.9074 270° West  Level Estimated

Login

Don't have an account? Register now (free) for customized features, flight alerts, and more!